Track COSMOS 2444 (GLONASS) now! COSMOS 2444 (GLONASS) is classified as:
1 33380U 08046C 24324.53149082 -.00000056 00000-0 00000+0 0 9993 2 33380 65.7859 334.3660 0020186 292.5548 58.6187 2.13112213125690